ATLAS AGENA D R/B, 2144

Orbit data source: Space-Track

ATLAS AGENA D R/B, 2144 is space debris in LEO originally from a launch on Fri, 08 Apr 1966 UTC launched from the Air Force Eastern Test Range (AFETR). Debris objects in space refer to the collection of defunct objects orbiting the Earth. Examples of debris include non-operational satellites, rocket bodies, and fragments generated from explosions, collisions, or faulty payload assembly.

Loading next visibility...
Identifier
2144, 1966-031B
Orbit
LEO
Country
Flag of USUS
Related business
Manufacturer
LMSC
Mission
Spacecraft
Bus & Motor
AGENA D, Unknown motor
Mass
769 kg wet, 769 kg dry
Launch date (UTC)
1966-04-08 (59 years ago)
Launch vehicle
Unknown
Launch site
Air Force Eastern Test Range (AFETR)
Object type
Payload
Rocket body
Debris
Shape & HBR
Cyl, 3.1 m
Radar Cross Section
8.306 m², Large (>1 m²)

Expand to show TLE details & history
Last TLE update: 15 hours ago

TLE from 15 hours ago
0 ATLAS AGENA D R/B
1 02144U 66031B   25258.16195316  .00000440  00000-0  13073-3 0  9996
2 02144  35.0419  68.3038 0008397 337.0206  23.0109 14.44678140122976
Epoch: 2025-09-15T03:53Z
TLE epoch observation values (Epoch: 2025-09-15T03:53:12.753Z)
Latitude
0.00004°
Longitude
15.63015°
Altitude
736.531 km
Speed
7.492 km/s
True Right ascension
04h 33m 12s
True Declination
0° 00' 00"
Sunlit
Object was in daylight at epoch
Visualization orbit readout
Latitude
Unknown
Longitude
Unknown
Altitude
Unknown
Speed
Unknown
Apparent Right ascension
Unknown
Apparent Declination
Unknown
Sunlit
N/A
Visualization observer readout
Local Sidereal Time
11:08:01
Azimuth
Unknown
Elevation
Unknown
Doppler factor
Unknown
Orbital elements
Apogee altitude
752.198 km
Perigee altitude
740.233 km
Semi-major axis
7,124.352 km
Eccentricity
0.00084
Inclination
35.0419°
RAAN
68.3038°
Arg. of periapsis
337.0206°
True anomaly
23.04855°
Mean anomaly
23.0109°
Eccentric anomaly
23.02972°
Mean motion
3.60932 °/min
Orbital period
99.74 mins
BSTAR
0.00013073
Loading maneuver chart data...
Computing Atmospheric mass density...
Loading historical data...
Loading historical data...
Loading historical data...
Loading historical data...
Loading historical data...
Loading historical data...
Loading historical data...
Other satellites on launch #31 in the year 1966 (1966-04-08 UTC)

Documentation

Showing up to 5 results
|